Hourly Data Report for December 05, 2006

TORONTO CITY
ONTARIO

43°40'00.000" N
79°24'00.000" W
112.50 m
6158355
71508
XTO

Download Data

Hourly Data (December 2006)
Hourly Data Report for December 5, 2006
TIME
LST
Temp Definition
°C
Dew Point Definition
°C
Rel Hum Definition
%
Precip. Amount Definition
mm

Wind Dir Definition
10's deg

Wind Spd Definition
km/h
Visibility Definition
km
Stn Press Definition
kPa
Hmdx Definition


Wind Chill Definition


Weather Definition


00:00 -4.5 -7.6 79   LegendMM LegendMM   100.39     LegendNANA
01:00 -4.7 -7.7 79   LegendMM LegendMM   100.35     LegendNANA
02:00 -4.7 -7.7 79   LegendMM LegendMM   100.37     LegendNANA
03:00 -4.9 -7.9 79   LegendMM LegendMM   100.44     LegendNANA
04:00 -5.1 -8.0 80   LegendMM LegendMM   100.48     LegendNANA
05:00 -5.0 -7.6 82   LegendMM LegendMM   100.55     LegendNANA
06:00 -5.0 -7.8 81   LegendMM LegendMM   100.60     LegendNANA
07:00 -5.0 -7.9 80   LegendMM LegendMM   100.69     LegendNANA
08:00 -5.0 -8.0 79   LegendMM LegendMM   100.74     LegendNANA
09:00 -4.0 -7.4 77   LegendMM LegendMM   100.81     LegendNANA
10:00 -2.3 -6.3 74   LegendMM LegendMM   100.90     LegendNANA
11:00 -0.7 -6.3 66   LegendMM LegendMM   100.93     LegendNANA
12:00 0.2 -5.9 64   LegendMM LegendMM   100.93     LegendNANA
13:00 0.7 -5.5 63   LegendMM LegendMM   100.97     LegendNANA
14:00 -0.4 -6.1 65   LegendMM LegendMM   100.98     LegendNANA
15:00 -0.3 -6.9 61   LegendMM LegendMM   100.98     LegendNANA
16:00 -0.3 -7.3 59   LegendMM LegendMM   101.03     LegendNANA
17:00 -1.2 -7.3 63   LegendMM LegendMM   101.06     LegendNANA
18:00 -1.6 -7.5 64   LegendMM LegendMM   101.10     LegendNANA
19:00 -2.1 -7.5 66   LegendMM LegendMM   101.14     LegendNANA
20:00 -2.4 -7.6 67   LegendMM LegendMM   101.09     LegendNANA
21:00 -2.4 -8.7 62   LegendMM LegendMM   101.08     LegendNANA
22:00 -2.6 -8.6 63   LegendMM LegendMM   101.00     LegendNANA
23:00 -1.7 -6.5 70   LegendMM LegendMM   100.90     LegendNANA

Notes on Data Quality.

Legend

  • E = Estimated
  • M = Missing
  • NA = Not Available*
  • [empty] = Indicates an unobserved value
Date modified: